カタログに戻る

STARLINK-35522

運用中通信VLEO
NORAD 66341·PAYLOAD·🇺🇸 United States

打ち上げ Nov 6, 2025 から Cape Canaveral Space Force Station

Loading…

次のパス (今後24時間)

TLE

最新Source: CelesTrak SupGP

元期: Sep 15, 2026, 03:33 UTC

1 66341C 25253Y   26258.14840278 -.00044336  00000+0 -16062-2 0  2580
2 66341  42.9994 222.7019 0001285 268.8151 245.0567 15.27593791    18

AllMySatでSTARLINK-35522をリアルタイム追跡

Download on the App Store